Weather History for Murray, KY

Change the Weather History Date:

Wednesday, March 21, 2012

  Actual Average (KPAH) Record (KPAH)
Temperature  
Mean Temperature 72 °F 50 °F  
Max Temperature 80 °F 61 °F 80 °F (1966)
Min Temperature 64 °F 39 °F 19 °F (2013)
Degree Days  
Heating Degree Days 0 15  
Month to date heating degree days 386  
Since 1 July heating degree days 3682  
Cooling Degree Days 7 0  
Month to date cooling degree days 0  
Year to date cooling degree days 0  
Growing Degree Days 22 (Base 50)    
Moisture  
Dew Point 55 °F    
Average Humidity 55    
Maximum Humidity 68    
Minimum Humidity 44    
Precipitation  
Precipitation 0.00 in 0.14 in 1.77 in (2010)
Month to date precipitation 2.55  
Year to date precipitation 10.14  
Snow  
Snow 0.00 in 0.00 in T in (1984)
Month to date snowfall 0.5  
Since 1 July snowfall 9.0  
Snow Depth -    
Sea Level Pressure  
Sea Level Pressure 30.03 in    
Wind  
Wind Speed 9 mph (SE)    
Max Wind Speed 17 mph    
Max Gust Speed 26 mph    
Visibility 10 miles    
Events      
T = Trace of Precipitation, MM = Missing Value Source: NWS Daily Summary

Daily Weather History Graph

Daily Weather History Graph

Search for Another Location

Airport:

Trip Planner

Search our weather history database for the weather conditions in past years. The results will help you decide how hot, cold, wet, or windy it might be!

Date:

Astronomy

Mar. 21, 2012 Rise Set
Actual Time 6:54 AM CDT 7:06 PM CDT
Civil Twilight 6:29 AM CDT 7:32 PM CDT
Nautical Twilight 5:58 AM CDT 8:02 PM CDT
Astronomical Twilight 5:28 AM CDT 8:33 PM CDT
Moon 6:05 AM CDT (3/21) 6:32 PM CDT (3/21)
Length of Visible Light 13h 03m
Length of Day
12h 11m
Waning Crescent, 1% of the Moon is Illuminated
Mar 21
Waning Crescent
Mar 22
New
Mar 30
First Quarter
Apr 6
Full
Apr 13
Last Quarter

Hourly Weather History & Observations

Time (CDT) Temp. Heat Index Dew Point Humidity Pressure Visibility Wind Dir Wind Speed Gust Speed Precip Events Conditions
12:15 AM 69.8 °F - 55.4 °F 60% 30.03 in 10.0 mi ESE 5.8 mph - N/A   Clear
12:35 AM 71.6 °F - 55.4 °F 57% 30.03 in 10.0 mi ESE 5.8 mph - N/A   Clear
12:55 AM 69.8 °F - 55.4 °F 60% 30.02 in 10.0 mi ESE 6.9 mph - N/A   Clear
1:15 AM 68.0 °F - 53.6 °F 60% 30.02 in 10.0 mi ESE 6.9 mph - N/A   Clear
1:35 AM 68.0 °F - 53.6 °F 60% 30.02 in 10.0 mi ESE 6.9 mph - N/A   Clear
1:55 AM 69.8 °F - 53.6 °F 56% 30.02 in 10.0 mi ESE 8.1 mph - N/A   Clear
2:15 AM 69.8 °F - 53.6 °F 56% 30.01 in 10.0 mi ESE 6.9 mph - N/A   Clear
2:35 AM 69.8 °F - 53.6 °F 56% 30.01 in 10.0 mi ESE 8.1 mph - N/A   Clear
2:55 AM 68.0 °F - 53.6 °F 60% 30.01 in 10.0 mi ESE 8.1 mph - N/A   Clear
3:15 AM 68.0 °F - 53.6 °F 60% 30.01 in 10.0 mi SE 8.1 mph - N/A   Clear
3:35 AM 68.0 °F - 53.6 °F 60% 30.01 in 10.0 mi SE 5.8 mph - N/A   Clear
3:55 AM 68.0 °F - 53.6 °F 60% 30.01 in 10.0 mi SE 5.8 mph - N/A   Clear
4:15 AM 68.0 °F - 53.6 °F 60% 30.02 in 10.0 mi SE 8.1 mph - N/A   Clear
4:35 AM 66.2 °F - 53.6 °F 64% 30.02 in 10.0 mi ESE 8.1 mph - N/A   Clear
5:15 AM 66.2 °F - 53.6 °F 64% 30.04 in 10.0 mi ESE 8.1 mph - N/A   Clear
5:35 AM 66.2 °F - 53.6 °F 64% 30.04 in 10.0 mi ESE 9.2 mph - N/A   Clear
5:55 AM 66.2 °F - 53.6 °F 64% 30.05 in 10.0 mi ESE 9.2 mph - N/A   Clear
6:15 AM 66.2 °F - 53.6 °F 64% 30.06 in 10.0 mi ESE 6.9 mph - N/A   Clear
6:35 AM 64.4 °F - 53.6 °F 68% 30.06 in 10.0 mi ESE 8.1 mph - N/A   Clear
6:55 AM 64.4 °F - 53.6 °F 68% 30.07 in 10.0 mi ESE 6.9 mph - N/A   Clear
7:15 AM 64.4 °F - 53.6 °F 68% 30.07 in 10.0 mi SE 6.9 mph - N/A   Clear
7:35 AM 66.2 °F - 53.6 °F 64% 30.07 in 10.0 mi SE 8.1 mph - N/A   Clear
7:55 AM 68.0 °F - 53.6 °F 60% 30.07 in 10.0 mi SE 8.1 mph - N/A   Clear
8:15 AM 68.0 °F - 53.6 °F 60% 30.07 in 10.0 mi SE 12.7 mph 17.3 mph N/A   Clear
8:35 AM 69.8 °F - 55.4 °F 60% 30.07 in 10.0 mi SE 10.4 mph 17.3 mph N/A   Clear
8:55 AM 71.6 °F - 55.4 °F 57% 30.07 in 10.0 mi SE 10.4 mph - N/A   Clear
9:15 AM 73.4 °F - 55.4 °F 53% 30.08 in 10.0 mi SE 10.4 mph 23.0 mph N/A   Clear
9:35 AM 73.4 °F - 55.4 °F 53% 30.08 in 10.0 mi SE 11.5 mph 18.4 mph N/A   Clear
9:55 AM 73.4 °F - 55.4 °F 53% 30.08 in 9.0 mi SE 12.7 mph 25.3 mph N/A   Clear
10:55 AM 75.2 °F - 57.2 °F 53% 30.07 in 10.0 mi ESE 17.3 mph 23.0 mph N/A   Clear
11:15 AM 77.0 °F - 57.2 °F 50% 30.06 in 10.0 mi SE 12.7 mph 21.9 mph N/A   Clear
11:35 AM 77.0 °F - 57.2 °F 50% 30.06 in 10.0 mi SE 10.4 mph 21.9 mph N/A   Clear
11:55 AM 77.0 °F - 57.2 °F 50% 30.06 in 10.0 mi SE 12.7 mph 19.6 mph N/A   Clear
12:15 PM 77.0 °F - 57.2 °F 50% 30.06 in 10.0 mi SSE 8.1 mph 23.0 mph N/A   Clear
12:35 PM 77.0 °F - 57.2 °F 50% 30.05 in 10.0 mi ESE 13.8 mph 23.0 mph N/A   Partly Cloudy
12:55 PM 78.8 °F - 55.4 °F 44% 30.05 in 10.0 mi SE 13.8 mph 23.0 mph N/A   Partly Cloudy
1:15 PM 78.8 °F - 57.2 °F 47% 30.04 in 10.0 mi ESE 15.0 mph 21.9 mph N/A   Scattered Clouds
1:35 PM 80.6 °F 80.8 °F 57.2 °F 45% 30.03 in 10.0 mi SE 13.8 mph 23.0 mph N/A   Scattered Clouds
1:55 PM 78.8 °F - 57.2 °F 47% 30.03 in 10.0 mi SE 9.2 mph 18.4 mph N/A   Scattered Clouds
2:15 PM 78.8 °F - 57.2 °F 47% 30.02 in 10.0 mi SE 9.2 mph 18.4 mph N/A   Mostly Cloudy
2:35 PM 77.0 °F - 55.4 °F 47% 30.02 in 10.0 mi SE 12.7 mph 20.7 mph N/A   Scattered Clouds
2:55 PM 78.8 °F - 57.2 °F 47% 30.01 in 10.0 mi SE 5.8 mph 20.7 mph N/A   Clear
3:15 PM 77.0 °F - 55.4 °F 47% 30.00 in 10.0 mi SSE 12.7 mph 25.3 mph N/A   Clear
3:35 PM 77.0 °F - 57.2 °F 50% 30.00 in 10.0 mi SSE 5.8 mph 18.4 mph N/A   Clear
3:55 PM 77.0 °F - 55.4 °F 47% 30.00 in 10.0 mi SSE 15.0 mph 26.5 mph N/A   Clear
4:15 PM 77.0 °F - 57.2 °F 50% 30.00 in 10.0 mi SE 9.2 mph 18.4 mph N/A   Clear
4:35 PM 77.0 °F - 57.2 °F 50% 30.00 in 10.0 mi SE 11.5 mph 20.7 mph N/A   Clear
4:55 PM 77.0 °F - 57.2 °F 50% 30.00 in 10.0 mi SE 10.4 mph 18.4 mph N/A   Clear
5:15 PM 77.0 °F - 57.2 °F 50% 29.99 in 10.0 mi ESE 12.7 mph 20.7 mph N/A   Clear
5:35 PM 77.0 °F - 57.2 °F 50% 29.99 in 10.0 mi SE 9.2 mph 19.6 mph N/A   Clear
5:55 PM 75.2 °F - 57.2 °F 53% 29.99 in 10.0 mi ESE 10.4 mph 18.4 mph N/A   Clear
6:15 PM 75.2 °F - 57.2 °F 53% 29.99 in 10.0 mi SE 6.9 mph 17.3 mph N/A   Clear
6:35 PM 75.2 °F - 57.2 °F 53% 29.99 in 10.0 mi ESE 9.2 mph 17.3 mph N/A   Clear
6:55 PM 75.2 °F - 57.2 °F 53% 29.99 in 10.0 mi ESE 9.2 mph - N/A   Clear
7:15 PM 73.4 °F - 57.2 °F 57% 29.99 in 10.0 mi ESE 10.4 mph - N/A   Clear
7:55 PM 73.4 °F - 55.4 °F 53% 29.99 in 10.0 mi ESE 13.8 mph 19.6 mph N/A   Clear
8:15 PM 73.4 °F - 55.4 °F 53% 30.00 in 10.0 mi ESE 10.4 mph 20.7 mph N/A   Clear
8:35 PM 73.4 °F - 55.4 °F 53% 30.00 in 10.0 mi ESE 11.5 mph 18.4 mph N/A   Clear
8:55 PM 73.4 °F - 55.4 °F 53% 30.01 in 10.0 mi ESE 9.2 mph 16.1 mph N/A   Partly Cloudy
9:15 PM 73.4 °F - 55.4 °F 53% 30.01 in 10.0 mi ESE 9.2 mph 16.1 mph N/A   Partly Cloudy
9:35 PM 73.4 °F - 55.4 °F 53% 30.00 in 10.0 mi ESE 9.2 mph - N/A   Mostly Cloudy
9:55 PM 71.6 °F - 55.4 °F 57% 30.01 in 10.0 mi ESE 9.2 mph - N/A   Scattered Clouds
10:15 PM 71.6 °F - 55.4 °F 57% 30.00 in 10.0 mi ESE 10.4 mph 16.1 mph N/A   Clear
10:35 PM 71.6 °F - 55.4 °F 57% 30.01 in 10.0 mi ESE 10.4 mph 18.4 mph N/A   Partly Cloudy
10:55 PM 71.6 °F - 55.4 °F 57% 30.01 in 10.0 mi ESE 11.5 mph 21.9 mph N/A   Clear
11:15 PM 71.6 °F - 55.4 °F 57% 30.02 in 10.0 mi SE 6.9 mph 16.1 mph N/A   Clear
11:35 PM 71.6 °F - 55.4 °F 57% 30.03 in 10.0 mi ESE 6.9 mph - N/A   Scattered Clouds
11:55 PM 71.6 °F - 55.4 °F 57% 30.03 in 10.0 mi ESE 9.2 mph - N/A   Overcast